TimeMDT,TemperatureF,Dew PointF,Humidity,Sea Level PressureIn,VisibilityMPH,Wind Direction,Wind SpeedMPH,Gust SpeedMPH,PrecipitationIn,Events,Conditions,WindDirDegrees,DateUTC
12:15 AM,23.2,-4.2,30,30.27,10.0,NNW,5.8,-,N/A,,Clear,330,2012-10-27 06:15:00
12:35 AM,26.6,-3.3,27,30.27,10.0,WNW,5.8,-,N/A,,Clear,300,2012-10-27 06:35:00
12:55 AM,27.1,-2.4,28,30.26,10.0,Calm,Calm,-,N/A,,Clear,0,2012-10-27 06:55:00
1:15 AM,22.6,-4.0,31,30.26,10.0,North,3.5,-,N/A,,Clear,360,2012-10-27 07:15:00
1:55 AM,22.8,-3.1,32,30.24,10.0,Calm,Calm,-,N/A,,Clear,0,2012-10-27 07:55:00
2:15 AM,19.4,-4.2,35,30.24,10.0,Calm,Calm,-,N/A,,Clear,0,2012-10-27 08:15:00
2:35 AM,20.7,-4.7,33,30.24,10.0,NNW,3.5,-,N/A,,Clear,330,2012-10-27 08:35:00
2:55 AM,20.3,-5.3,32,30.24,10.0,Calm,Calm,-,N/A,,Clear,0,2012-10-27 08:55:00
3:15 AM,18.9,-6.2,33,30.23,10.0,NW,3.5,-,N/A,,Clear,320,2012-10-27 09:15:00
3:35 AM,19.2,-4.5,35,30.24,10.0,NW,4.6,-,N/A,,Clear,310,2012-10-27 09:35:00
3:55 AM,19.9,-4.4,34,30.23,10.0,NW,3.5,-,N/A,,Clear,320,2012-10-27 09:55:00
4:15 AM,19.9,-4.4,34,30.23,10.0,WNW,3.5,-,N/A,,Clear,300,2012-10-27 10:15:00
4:35 AM,20.8,-4.2,33,30.23,10.0,NNW,6.9,-,N/A,,Clear,340,2012-10-27 10:35:00
4:55 AM,19.8,-3.8,35,30.23,10.0,WNW,4.6,-,N/A,,Clear,300,2012-10-27 10:55:00
5:15 AM,20.1,-3.8,35,30.24,10.0,North,4.6,-,N/A,,Clear,350,2012-10-27 11:15:00
5:35 AM,18.1,-4.4,37,30.23,10.0,NW,5.8,-,N/A,,Clear,320,2012-10-27 11:35:00
5:55 AM,18.5,-4.9,35,30.24,10.0,NW,6.9,-,N/A,,Clear,310,2012-10-27 11:55:00
6:15 AM,19.4,-4.4,35,30.24,10.0,NW,6.9,-,N/A,,Clear,320,2012-10-27 12:15:00
6:35 AM,18.5,-4.9,35,30.24,10.0,North,3.5,-,N/A,,Clear,360,2012-10-27 12:35:00
6:55 AM,15.4,-5.1,40,30.25,10.0,NW,4.6,-,N/A,,Clear,310,2012-10-27 12:55:00
7:15 AM,15.8,-5.1,39,30.26,10.0,NW,5.8,-,N/A,,Clear,320,2012-10-27 13:15:00
7:35 AM,18.5,-4.0,37,30.26,10.0,WNW,5.8,-,N/A,,Clear,300,2012-10-27 13:35:00
7:55 AM,20.7,-3.3,35,30.27,10.0,NW,6.9,-,N/A,,Clear,320,2012-10-27 13:55:00
8:35 AM,24.6,-2.4,31,30.27,10.0,NW,6.9,-,N/A,,Clear,310,2012-10-27 14:35:00
8:55 AM,27.9,-0.4,30,30.27,10.0,NW,5.8,-,N/A,,Clear,310,2012-10-27 14:55:00
9:15 AM,31.3,1.4,28,30.27,10.0,NNW,4.6,-,N/A,,Clear,330,2012-10-27 15:15:00
9:35 AM,33.8,2.8,27,30.27,10.0,NNW,3.5,-,N/A,,Clear,340,2012-10-27 15:35:00
9:55 AM,36.9,4.8,26,30.26,10.0,NW,4.6,-,N/A,,Clear,320,2012-10-27 15:55:00
10:15 AM,39.9,8.6,28,30.26,10.0,Calm,Calm,-,N/A,,Clear,0,2012-10-27 16:15:00
10:35 AM,41.5,11.5,29,30.24,10.0,Calm,Calm,-,N/A,,Clear,0,2012-10-27 16:35:00
10:55 AM,44.2,14.0,30,30.24,10.0,Calm,Calm,-,N/A,,Clear,0,2012-10-27 16:55:00
11:15 AM,46.2,12.9,26,30.23,10.0,Calm,Calm,-,N/A,,Clear,0,2012-10-27 17:15:00
11:35 AM,49.1,10.6,21,30.23,10.0,Calm,Calm,-,N/A,,Clear,0,2012-10-27 17:35:00
11:55 AM,51.8,10.6,19,30.22,10.0,NNW,5.8,-,N/A,,Clear,340,2012-10-27 17:55:00
12:15 PM,53.1,10.2,18,30.21,10.0,NW,4.6,-,N/A,,Clear,310,2012-10-27 18:15:00
12:35 PM,55.8,8.4,15,30.20,10.0,North,5.8,-,N/A,,Clear,10,2012-10-27 18:35:00
12:55 PM,58.1,1.8,10,30.19,10.0,NNW,6.9,-,N/A,,Clear,330,2012-10-27 18:55:00
1:15 PM,59.7,5.5,12,30.18,10.0,North,5.8,-,N/A,,Clear,10,2012-10-27 19:15:00
1:35 PM,60.3,6.6,12,30.17,10.0,NNE,6.9,-,N/A,,Clear,20,2012-10-27 19:35:00
1:55 PM,62.6,7.0,11,30.16,10.0,NW,4.6,-,N/A,,Clear,320,2012-10-27 19:55:00
2:15 PM,63.7,8.2,11,30.15,10.0,NNW,8.1,-,N/A,,Clear,340,2012-10-27 20:15:00
2:35 PM,65.5,9.1,11,30.14,10.0,NNW,12.7,-,N/A,,Clear,330,2012-10-27 20:35:00
2:55 PM,65.3,8.2,11,30.14,10.0,North,8.1,19.6,N/A,,Clear,350,2012-10-27 20:55:00
3:15 PM,65.5,7.0,10,30.14,10.0,NNW,12.7,17.3,N/A,,Clear,330,2012-10-27 21:15:00
3:35 PM,64.9,6.4,10,30.13,10.0,North,5.8,19.6,N/A,,Clear,350,2012-10-27 21:35:00
3:55 PM,64.6,5.4,10,30.14,10.0,NNE,13.8,19.6,N/A,,Clear,20,2012-10-27 21:55:00
4:15 PM,63.7,4.8,10,30.14,10.0,North,12.7,17.3,N/A,,Clear,360,2012-10-27 22:15:00
4:35 PM,63.0,4.6,10,30.14,10.0,North,13.8,19.6,N/A,,Clear,360,2012-10-27 22:35:00
4:55 PM,61.9,4.3,10,30.15,10.0,NNE,12.7,20.7,N/A,,Clear,20,2012-10-27 22:55:00
5:15 PM,61.2,4.1,10,30.15,10.0,North,15.0,19.6,N/A,,Clear,10,2012-10-27 23:15:00
5:35 PM,60.1,4.1,11,30.16,10.0,North,10.4,20.7,N/A,,Clear,10,2012-10-27 23:35:00
5:55 PM,58.8,4.1,11,30.16,10.0,North,13.8,18.4,N/A,,Clear,10,2012-10-27 23:55:00
6:15 PM,56.1,4.3,12,30.17,10.0,North,12.7,-,N/A,,Clear,10,2012-10-28 00:15:00
6:35 PM,53.4,4.5,14,30.18,10.0,North,8.1,-,N/A,,Clear,360,2012-10-28 00:35:00
6:55 PM,47.8,2.7,16,30.20,10.0,NW,4.6,-,N/A,,Clear,320,2012-10-28 00:55:00
7:15 PM,47.1,2.8,16,30.20,10.0,WNW,8.1,-,N/A,,Clear,300,2012-10-28 01:15:00
7:35 PM,45.5,3.6,18,30.22,10.0,WNW,8.1,-,N/A,,Clear,300,2012-10-28 01:35:00
7:55 PM,42.4,4.1,20,30.22,10.0,North,4.6,-,N/A,,Clear,350,2012-10-28 01:55:00
8:15 PM,40.5,4.3,22,30.22,10.0,Calm,Calm,-,N/A,,Clear,0,2012-10-28 02:15:00
8:35 PM,41.4,3.9,21,30.22,10.0,Calm,Calm,-,N/A,,Clear,0,2012-10-28 02:35:00
8:55 PM,40.5,5.5,24,30.23,10.0,North,3.5,-,N/A,,Clear,350,2012-10-28 02:55:00
9:15 PM,40.1,5.0,23,30.23,10.0,NNW,3.5,-,N/A,,Clear,340,2012-10-28 03:15:00
9:35 PM,37.8,4.5,25,30.24,10.0,Calm,Calm,-,N/A,,Clear,0,2012-10-28 03:35:00
9:55 PM,35.2,5.0,28,30.24,10.0,Calm,Calm,-,N/A,,Clear,0,2012-10-28 03:55:00
10:15 PM,33.3,3.9,29,30.24,10.0,NNW,3.5,-,N/A,,Clear,340,2012-10-28 04:15:00
10:35 PM,33.1,3.2,28,30.25,10.0,NW,3.5,-,N/A,,Clear,310,2012-10-28 04:35:00
10:55 PM,31.8,2.7,29,30.25,10.0,NW,5.8,-,N/A,,Clear,310,2012-10-28 04:55:00
11:15 PM,33.3,3.4,28,30.26,10.0,NNW,5.8,-,N/A,,Clear,330,2012-10-28 05:15:00
11:35 PM,30.2,3.2,32,30.26,10.0,NW,4.6,-,N/A,,Clear,310,2012-10-28 05:35:00
11:55 PM,34.0,5.0,30,30.26,10.0,Calm,Calm,-,N/A,,Clear,0,2012-10-28 05:55:00